Location: Newark
(37.9800°N, 91.3000°W)
Time: 02:29:46
(UTC+00:00)

NOAA 19 - Pass Details

Date: 08 December 2019
Orbit: 840 x 862 km, 99.2° (Epoch: 23 January)

Event Time Altitude Azimuth Distance (km) Brightness Sun altitude
Rises 11:52:18 0° 13° (NNE) 3,442 8.3 -14.6°
Reaches altitude 10° 11:54:41 10° 13° (NNE) 2,499 7.6 -14.2°
Maximum altitude 12:00:15 86° 285° (WNW) 862 5.2 -13.1°
Drops below altitude 10° 12:05:44 10° 197° (SSW) 2,470 7.7 -12.1°
Sets 12:08:05 0° 197° (SSW) 3,399 8.4 -11.7°
